Regional Weather Roundup
Issued by NWS

Home | Current Version | Previous Version | Text Only | Print | Product List | Glossary Off
Versions: 1 2 3 4 5 6 7 8 9 10 11 12 13 14 15 16 17 18 19 20 21 22 23 24 25 26 27 28 29 30 31 32 33 34 35 36 37 38 39 40 41 42 43 44 45 46 47 48 49 50

000
ASUS45 KABQ 250701
RWRNM
NEW MEXICO REGIONAL WEATHER ROUNDUP
NATIONAL WEATHER SERVICE ALBUQUERQUE NM
100 AM MDT SAT MAR 25 2017

NOTE: "FAIR" MEANS FEW OR NO CLOUDS BELOW 12,000 FEET AGL WITH NO
       SIGNIFICANT WEATHER OR OBSTRUCTIONS TO VISION.

      THIS PRODUCT IS RELEASED AS TWO VERSIONS.  ONE VERSION NEAR
      THE TOP OF THE HOUR CONTAINING PRELIMINARY DATA FROM ALBUQUERQUE
      AND OTHER STATIONS.  A FINAL VERSION WITH ADDITIONAL DATA IS
      ISSUED ABOUT 10 MINUTES AFTER THE HOUR.

NMZ501-503-504-510>518-250800-
NORTHWEST PLATEAU/NORTHCENTRAL MOUNTAINS

CITY           SKY/WX    TMP DP  RH WIND       PRES   REMARKS
FARMINGTON     FAIR      43  22  43 SW6       30.15S
LOS ALAMOS     FAIR      46  21  37 E3        30.20S
SANTA FE       FAIR      35  30  82 N7        30.16S WCI  29
TAOS             N/A     30  21  69 N7        30.20R WCI  23
ANGEL FIRE     FAIR      25  24  95 CALM      30.21S

$$
NMZ402-403-502-505>509-250800-
WESTCENTRAL MOUNTAINS/SOUTHWEST MOUNTAINS

CITY           SKY/WX    TMP DP  RH WIND       PRES   REMARKS
GALLUP         FAIR      32  25  75 CALM      30.22F
GRANTS         FAIR      28  19  68 NW9G16    30.24F WCI  19
SILVER CITY    FAIR      45  28  51 N7        30.20R

$$
NMZ407-409-411-412-250800-
SOUTHERN DESERTS

CITY           SKY/WX    TMP DP  RH WIND       PRES   REMARKS
DEMING         FAIR      49  26  41 SW7       30.16F
LAS CRUCES     FAIR      49  26  41 NW6       30.14F
HOLLOMAN AFB   FAIR      52  24  33 SE10      30.15S
ALAMOGORDO     FAIR      52  21  30 S5        30.13S
T OR C         FAIR      54  22  28 NW12      30.14F

$$
NMZ519>523-250800-
CENTRAL VALLEYS/CENTRAL HIGHLANDS

CITY           SKY/WX    TMP DP  RH WIND       PRES   REMARKS
ALBUQUERQUE    FAIR      51  19  28 W7        30.17S
MORIARTY ARPT  FAIR      33  26  77 SW7       30.20F WCI  26
CLINES CORNERS FAIR      34  25  69 S8        30.19F WCI  27
BELEN          FAIR      41  21  45 W8        30.17F
SOCORRO        FAIR      54  23  30 N6        30.15S

$$
NMZ524>526-539-540-250800-
SOUTHCENTRAL MOUNTAINS

CITY           SKY/WX    TMP DP  RH WIND       PRES   REMARKS
RUIDOSO        NOT AVBL

$$
NMZ527>531-250800-
NORTHEAST HIGHLANDS/NORTHEAST PLAINS

CITY           SKY/WX    TMP DP  RH WIND       PRES   REMARKS
LAS VEGAS      FAIR      28  24  85 SW9       30.17F WCI  19
RATON          FAIR      38  26  62 E6        30.12S WCI  33
CLAYTON        FAIR      38  34  85 NW10      30.10F WCI  31

$$
NMZ532>537-250800-
EASTCENTRAL PLAINS

CITY           SKY/WX    TMP DP  RH WIND       PRES   REMARKS
TUCUMCARI      FAIR      38  29  70 CALM      30.11F
CANNON AFB     FAIR      40  34  79 NW7       30.13S WCI  35
CLOVIS AIRPORT FAIR      36  27  69 NW7       30.13S WCI  30

$$
NMZ028-029-538-250800-
SOUTHEAST PLAINS

CITY           SKY/WX    TMP DP  RH WIND       PRES   REMARKS
ROSWELL        FAIR      45  26  47 W6          N/A
ARTESIA        FAIR      45  27  49 W8        30.19R
CARLSBAD       FAIR      48  27  44 W3        30.17S
HOBBS          FAIR      45  30  57 N9        30.16F


$$




USA.gov is the U.S. government's official web portal to all federal, state and local government web resources and services.